Wind_Speed
8 8 7 7 6 6 7 7 8 9 10 10 11 12 13 14 15 17 18 19 20 22 23 24 25 26 27 28 29 31 32 33 34 36 36 37 38 38 38 37 36 35 34 32 31 29 27 26 22 19 18 16 17 19 17 16 15 12 10 8 10 10 9 8 8 7 7 10 11 11 13 13 14 16 17 19 21 24 27 30 30 29 29 30 30 29 28 25
9 8 7 7 6 6 6 7 8 8 9 10 11 12 13 14 15 17 18 19 20 21 22 23 25 26 27 28 29 30 32 33 34 35 36 37 38 38 38 38 37 36 35 34 33 32 30 28 26 22 22 19 20 23 20 16 15 14 12 10 11 10 8 7 6 6 6 11 12 11 13 13 13 14 15 17 20 22 25 28 30 30 28 28 29 29 28 26
10 9 8 7 6 6 6 7 7 8 9 10 11 12 13 14 15 16 18 19 20 21 22 23 24 25 26 27 28 30 31 32 33 34 35 37 38 38 39 39 38 38 37 36 35 34 32 31 29 26 26 24 21 23 22 19 17 16 15 12 11 9 8 7 5 6 6 10 12 11 13 13 12 13 13 15 18 21 23 26 28 30 29 27 28 28 28 27
11 11 9 8 7 7 7 7 7 8 9 9 11 12 13 14 15 17 18 19 20 21 22 23 24 25 26 27 28 29 31 32 33 34 35 36 37 38 39 39 39 39 38 37 36 36 35 33 32 30 29 28 24 23 23 21 19 17 14 12 10 8 7 9 7 9 9 8 9 10 13 13 11 12 13 13 16 19 22 24 26 28 29 27 26 27 27 27
13 12 11 10 9 8 8 8 8 8 9 9 11 12 13 14 15 16 17 19 20 21 22 23 24 25 26 27 28 29 30 31 32 33 34 35 37 38 39 39 40 39 39 39 38 38 37 36 35 34 32 30 28 26 23 22 19 16 14 12 12 9 6 9 7 8 12 10 11 13 13 12 11 12 12 12 14 17 20 22 24 26 28 28 26 26 26 27
14 13 12 11 10 10 9 9 9 9 10 10 11 12 13 14 14 16 17 18 19 21 22 23 23 24 25 26 28 28 30 31 32 33 34 35 36 37 38 39 40 40 41 40 40 40 39 39 37 37 35 33 32 29 25 22 17 14 15 13 11 8 6 10 7 6 12 12 13 14 11 11 11 11 10 11 13 15 18 20 22 24 26 27 26 25 25 26
15 14 13 13 12 11 11 11 11 11 11 11 12 12 13 13 14 15 16 17 19 20 21 23 23 24 25 26 27 28 29 30 31 32 34 35 36 37 38 39 40 41 42 42 41 41 41 41 40 38 37 35 33 31 28 23 17 15 17 15 11 6 5 11 11 13 17 16 16 14 11 10 10 10 9 11 12 13 16 18 20 22 24 26 26 26 25 26
16 15 14 14 13 13 12 12 12 13 13 13 13 13 13 14 14 15 16 17 18 19 21 22 23 24 25 26 27 28 29 30 31 32 33 35 35 37 38 39 40 41 42 42 42 42 42 42 41 40 39 37 34 32 31 26 21 19 19 20 17 11 11 15 18 19 21 19 17 15 11 10 9 10 9 10 11 11 13 16 19 20 22 24 25 26 26 25
17 16 15 14 14 13 13 13 14 14 14 14 15 15 14 14 14 15 15 16 17 18 19 21 22 24 25 25 26 27 29 29 31 32 33 34 35 36 37 38 39 41 42 42 43 43 43 43 43 42 41 39 36 35 34 30 28 26 24 25 22 17 20 23 23 22 21 19 18 16 13 11 11 11 10 9 10 10 11 14 17 18 20 22 24 26 26 25
18 17 16 15 14 14 14 14 15 15 15 16 16 16 15 15 15 15 15 16 16 17 18 20 21 23 24 25 26 27 28 29 30 31 32 34 35 36 37 38 39 40 41 42 43 43 44 44 44 44 42 41 39 38 36 34 34 31 27 28 23 21 26 27 26 25 22 21 19 16 14 12 12 11 9 9 9 9 10 11 14 16 18 20 22 24 25 25
19 18 16 16 15 14 15 15 15 16 16 17 17 16 16 16 16 16 16 16 16 17 18 19 20 21 23 24 25 26 27 28 29 31 32 33 34 35 37 38 39 39 40 42 43 44 44 45 45 45 44 42 41 41 40 38 39 36 31 30 24 20 24 24 24 26 24 22 20 17 15 13 13 11 9 9 9 9 9 9 12 15 16 18 20 22 24 24
20 19 17 16 16 15 15 16 16 17 17 17 17 17 17 17 17 17 17 17 17 17 18 18 19 20 21 23 24 25 26 27 28 30 31 33 34 35 36 37 38 39 40 41 42 44 44 45 46 46 46 44 43 43 43 42 42 39 36 36 30 24 24 23 23 25 24 22 20 19 16 13 12 11 8 8 9 9 9 8 9 12 14 16 18 20 22 24
20 19 18 18 17 17 17 17 17 17 18 18 18 18 18 17 17 18 18 18 18 18 18 19 19 20 20 21 23 24 25 26 27 29 31 32 34 35 36 37 37 38 39 40 41 43 44 45 46 47 47 46 46 46 46 45 45 42 39 40 38 32 30 28 26 25 25 23 22 20 18 15 13 10 8 9 9 8 9 8 8 10 13 14 16 18 20 22
21 20 19 18 18 18 18 18 18 18 19 19 19 19 19 18 18 18 18 19 19 19 19 19 20 20 20 21 21 23 24 25 26 28 29 31 33 34 36 36 37 38 39 40 41 42 44 45 46 47 48 47 47 47 48 48 47 45 42 42 42 39 35 32 30 28 26 24 22 20 18 17 14 10 9 10 9 8 9 8 7 8 11 12 14 16 18 20
21 21 20 19 19 19 19 19 19 19 20 19 19 19 19 19 19 19 19 19 20 20 20 20 20 20 20 21 21 22 23 24 25 27 28 30 32 33 35 36 37 37 38 40 40 42 43 45 46 48 48 48 48 49 49 49 49 48 46 44 44 42 38 33 31 30 28 26 24 21 20 18 15 11 8 8 8 8 9 8 6 6 9 11 12 14 16 18
21 21 21 20 20 20 20 20 20 21 20 20 20 20 20 20 20 20 19 20 20 20 20 20 21 21 21 21 21 22 22 23 24 26 27 28 30 32 34 36 37 37 38 39 40 41 43 44 46 47 48 49 50 50 51 51 51 51 50 48 46 44 41 35 31 30 30 29 26 23 22 20 17 14 9 7 9 11 10 8 6 5 7 9 10 12 14 16
22 22 22 21 21 21 21 21 21 21 21 21 21 21 20 21 21 20 20 20 21 21 20 20 21 21 21 22 22 22 22 23 24 25 26 27 29 31 32 34 36 38 39 40 40 41 42 44 45 47 48 49 50 51 52 52 53 53 52 51 49 47 44 39 34 31 31 31 29 25 23 22 20 17 11 8 10 13 11 8 7 5 5 7 9 10 12 14
22 22 22 22 22 22 22 22 22 22 22 22 21 21 21 21 21 21 21 21 21 21 21 21 21 22 22 23 23 23 23 23 24 25 26 27 28 30 31 33 35 37 39 40 41 41 42 43 44 46 48 50 51 52 53 53 54 54 53 52 52 49 46 43 39 35 33 31 30 28 24 23 22 19 14 10 11 14 12 9 8 6 5 5 7 8 10 11
22 23 23 23 23 24 23 23 22 22 23 22 22 22 22 22 21 21 22 22 22 21 22 21 21 22 22 23 24 24 24 24 24 25 26 27 27 29 30 32 34 35 38 40 41 42 42 43 44 45 47 49 51 52 53 54 54 54 54 54 53 51 49 46 43 39 35 32 31 30 28 24 23 21 16 11 12 14 12 10 9 8 6 5 5 6 8 9
23 23 24 24 24 24 24 24 23 23 23 23 23 22 22 22 22 22 22 23 22 22 22 22 22 22 23 23 24 24 24 24 24 25 26 26 27 28 30 31 32 34 36 39 41 42 42 42 43 44 46 48 49 51 53 54 54 55 56 55 54 52 51 49 46 43 39 36 34 33 32 28 24 23 20 15 12 13 13 11 10 9 8 6 5 5 6 7
24 24 24 24 24 24 24 24 24 24 24 24 24 23 23 23 22 23 23 23 23 22 22 23 23 23 23 23 24 24 25 25 25 25 26 26 27 28 29 30 32 33 35 37 39 41 42 43 44 44 45 46 48 50 53 54 55 56 56 55 55 54 52 50 49 47 43 40 37 34 34 31 26 24 23 20 15 13 13 13 12 11 10 8 6 5 5 6
26 26 25 25 24 24 24 24 24 24 24 25 24 24 23 23 23 23 24 24 24 23 22 22 22 22 22 23 23 24 24 25 25 26 26 26 27 28 29 30 31 32 33 35 37 40 42 44 44 45 45 46 48 50 52 53 55 56 56 56 56 54 53 51 50 50 46 43 40 36 34 32 29 27 25 24 20 17 15 15 15 13 12 10 8 6 5 5
27 27 26 26 25 25 24 24 24 24 25 25 25 25 24 24 24 24 24 24 24 23 22 21 21 21 20 20 22 22 23 24 25 25 26 26 27 28 29 30 31 32 33 34 36 39 41 42 44 46 46 47 48 49 50 52 54 55 55 56 55 54 54 52 52 51 49 47 45 41 37 34 33 32 29 26 22 20 20 18 17 17 15 13 11 9 7 5
27 27 27 26 26 25 25 24 24 23 24 25 25 26 25 25 24 24 23 23 23 22 20 20 19 19 19 18 20 20 21 22 23 24 25 26 27 28 28 29 31 31 32 34 35 37 38 40 43 46 47 48 49 49 49 50 51 53 54 55 55 54 54 54 53 53 51 48 46 44 42 38 37 37 34 31 27 23 24 22 19 20 19 16 15 12 10 8
27 27 27 27 26 26 25 25 24 24 24 24 25 25 24 24 23 23 22 20 21 21 19 19 19 18 18 17 19 20 20 21 21 22 23 24 26 27 28 29 30 31 32 33 35 36 37 39 43 45 47 48 49 48 48 49 49 51 52 53 54 54 55 55 55 55 53 51 48 46 45 42 40 39 37 36 33 28 26 24 21 21 21 20 18 16 13 11
27 27 27 27 27 27 26 25 25 24 24 23 24 24 22 22 21 21 20 18 20 21 18 18 19 18 18 18 19 21 20 21 22 21 22 23 24 25 27 28 29 30 31 33 34 35 36 39 42 44 45 47 48 48 48 48 49 50 50 51 53 54 55 55 56 55 55 53 50 49 48 45 43 41 40 39 38 33 28 27 26 26 25 24 22 19 16 14
28 28 27 26 26 27 26 26 24 22 22 21 21 22 21 21 20 20 19 17 19 21 19 19 20 19 18 19 20 22 21 22 22 22 23 23 23 24 25 26 28 29 31 32 33 35 37 39 41 42 43 45 46 47 48 49 50 49 48 49 51 53 54 55 55 56 56 55 54 51 49 48 46 45 44 43 42 38 33 30 30 29 27 27 25 23 20 17
28 29 28 26 25 25 24 24 23 20 19 19 19 19 19 19 18 18 19 17 19 20 19 20 19 18 18 18 20 21 20 20 21 21 22 22 23 23 24 25 26 28 30 31 32 34 36 38 39 40 41 43 44 46 48 49 50 48 47 48 49 51 52 54 55 56 56 56 56 54 52 50 49 47 46 45 45 43 37 32 32 31 28 28 27 25 24 21
27 28 28 25 23 23 21 21 22 19 18 18 17 17 16 16 16 17 18 19 18 17 18 19 16 15 15 16 17 17 17 16 17 18 19 20 21 22 23 25 25 26 27 28 30 33 35 36 37 39 39 41 43 45 47 49 49 48 48 48 48 50 51 53 54 55 56 57 57 56 55 53 51 50 48 47 46 45 40 34 33 33 29 27 26 25 24 24
26 27 27 24 22 22 21 20 21 20 19 18 17 17 16 15 15 16 17 18 16 14 17 17 14 14 14 14 15 15 15 15 15 16 18 18 19 20 22 24 25 25 25 26 28 32 34 34 36 37 38 39 41 43 45 47 48 48 49 48 49 50 50 51 53 53 54 56 57 57 57 56 54 52 51 50 48 46 42 37 35 36 33 29 26 25 25 25
25 26 26 24 23 22 22 22 22 22 22 21 20 19 18 17 16 18 18 16 14 14 17 17 15 16 15 15 16 16 16 16 16 16 17 19 19 19 20 22 23 24 25 26 27 29 31 32 34 36 37 38 40 42 43 45 46 47 48 49 49 50 50 49 50 50 51 54 56 57 58 58 57 55 53 52 50 48 45 41 36 36 37 36 31 28 27 27
27 28 27 26 25 25 26 26 25 26 25 24 24 23 22 21 21 22 20 16 15 17 19 18 18 19 18 17 18 19 19 19 19 18 17 19 19 19 20 21 22 23 24 25 25 27 29 30 32 34 36 38 39 40 42 43 45 46 48 49 49 49 49 49 49 49 50 52 54 57 59 59 59 57 54 53 53 51 48 46 40 35 35 37 34 30 28 28
29 29 28 28 27 27 28 28 28 28 28 27 27 26 26 25 26 26 24 20 18 19 22 21 21 21 21 20 21 22 22 21 21 20 19 19 20 20 20 20 20 21 23 24 25 26 27 28 30 33 35 36 38 39 40 41 43 45 47 48 48 49 49 49 49 50 51 53 54 57 59 59 59 59 57 55 56 55 51 48 45 39 34 34 33 30 27 28
29 28 27 27 27 26 27 28 28 28 28 28 28 28 29 29 29 28 27 25 22 21 24 25 23 23 23 23 23 25 25 23 23 22 20 20 21 21 21 20 19 20 21 23 24 26 26 26 28 31 33 35 37 37 38 41 42 43 45 46 47 48 50 50 51 51 52 53 54 56 58 59 59 60 58 56 56 56 54 51 49 46 40 37 35 31 27 27
29 29 28 28 27 26 27 28 28 28 28 28 28 29 30 30 29 28 27 28 26 24 27 27 25 24 25 25 25 26 27 25 25 24 22 22 22 22 22 21 20 20 21 21 23 25 26 24 26 29 30 33 35 36 37 40 41 42 43 45 45 46 49 52 53 53 52 53 54 55 57 59 59 60 61 59 57 56 56 55 52 49 46 42 39 37 33 29
31 31 30 30 29 28 29 30 30 30 30 29 29 31 32 30 30 29 28 29 29 27 28 29 27 27 26 27 27 28 29 27 26 26 24 23 23 22 22 22 21 20 20 20 21 23 24 24 25 26 27 30 33 35 37 38 39 41 41 43 45 47 49 51 52 53 53 53 54 54 56 58 59 60 61 61 61 58 56 56 54 51 48 45 41 39 38 34
32 32 31 30 30 29 30 31 31 32 32 32 32 33 34 32 32 31 29 30 32 30 29 30 30 30 28 28 30 30 30 28 28 27 25 24 23 23 22 22 22 21 19 20 21 21 23 23 23 24 25 28 31 34 36 37 38 40 40 42 45 47 49 49 50 53 54 54 54 54 55 56 57 59 59 60 62 61 58 57 56 54 50 46 42 40 41 40
33 33 32 31 30 30 30 31 32 32 33 34 35 35 35 34 35 34 31 33 35 33 30 32 33 31 30 31 31 31 30 29 29 28 26 25 24 24 23 22 22 22 20 21 21 19 21 23 23 23 24 26 29 31 33 36 38 39 40 42 43 44 47 49 50 52 53 55 56 56 55 55 55 57 58 59 60 61 60 58 57 57 54 48 45 43 43 43
35 34 33 32 32 32 33 34 34 34 35 36 36 37 36 36 36 36 34 35 38 35 33 36 35 31 31 32 33 33 30 28 30 30 26 25 25 25 24 23 23 22 22 22 21 19 20 22 23 24 24 25 27 28 30 34 37 38 39 41 42 43 45 48 50 52 53 55 57 57 57 55 53 55 57 58 59 60 61 59 56 58 57 52 47 45 45 46
37 36 35 34 34 34 34 35 35 36 37 37 38 38 38 38 38 38 36 37 40 37 35 39 38 34 32 32 34 36 31 27 29 31 28 26 26 27 25 24 24 23 23 24 22 21 21 21 23 24 24 24 25 26 27 31 35 37 38 40 42 43 44 46 48 50 53 55 56 57 58 56 54 54 55 57 58 58 59 60 57 55 55 53 51 49 49 48
38 37 37 36 35 35 35 35 36 36 37 38 38 38 38 39 39 39 39 38 39 38 37 40 40 38 35 33 36 38 34 30 29 30 30 29 28 28 26 25 26 25 25 26 24 23 23 21 22 25 25 24 24 25 26 28 33 36 38 39 42 43 44 46 47 49 52 54 55 56 58 57 56 55 54 55 57 57 58 59 55 51 52 53 53 53 51 49
39 38 38 37 36 35 35 35 35 36 36 36 37 36 36 37 39 39 39 38 39 39 38 40 41 41 38 37 39 40 37 36 32 29 32 33 30 30 28 26 27 27 27 27 26 26 25 23 24 25 25 25 24 24 24 25 30 35 37 38 40 42 45 46 47 47 50 53 55 57 58 58 57 56 54 53 55 56 56 56 53 49 51 56 58 57 53 49
40 39 39 37 36 35 34 33 33 34 34 34 34 34 33 34 36 37 37 38 38 39 38 39 40 41 40 39 41 42 39 39 36 32 34 36 33 33 31 26 28 29 28 29 29 27 27 27 26 26 26 25 24 24 24 24 27 31 34 36 37 39 42 44 45 46 48 52 54 56 57 57 57 56 55 54 54 55 55 55 56 53 49 55 64 65 61 57
41 40 40 38 36 35 34 33 33 31 32 33 33 32 30 30 30 32 33 34 36 38 39 39 41 41 41 40 41 43 41 40 40 36 37 39 36 36 34 29 29 32 31 31 31 30 30 30 28 27 26 25 25 25 25 25 26 29 31 33 35 38 40 41 43 45 48 50 51 54 56 56 56 55 55 55 54 54 54 55 60 61 54 54 62 65 64 65
43 42 41 39 38 37 36 35 33 30 29 30 31 31 29 27 27 27 27 27 30 33 34 37 40 42 44 43 42 43 42 41 42 40 41 41 38 38 37 31 31 35 33 31 33 33 33 32 30 29 29 27 26 25 25 25 26 27 29 32 34 36 37 39 41 44 46 47 49 52 53 52 53 54 54 55 55 54 55 55 59 64 61 57 59 62 62 64
45 44 43 41 40 39 37 35 34 32 31 30 30 30 29 29 28 27 26 26 26 27 27 29 33 37 41 43 44 46 44 42 43 43 45 44 41 40 39 33 33 35 33 33 35 35 34 34 33 32 31 29 28 26 25 26 26 26 27 30 33 35 35 37 40 42 43 46 48 49 50 49 51 53 54 55 56 55 55 55 58 62 62 57 57 62 64 63
47 46 45 43 41 41 39 36 35 34 33 31 30 30 30 31 30 28 27 28 26 24 25 26 27 29 33 37 41 45 46 45 44 45 46 45 43 45 42 36 34 35 34 36 37 35 34 35 35 34 32 31 31 29 27 27 27 27 28 29 31 33 34 35 38 39 40 43 45 46 47 49 50 53 54 55 56 55 54 55 56 58 59 56 54 58 64 66
48 47 47 45 43 43 41 37 36 36 35 32 31 31 31 31 31 29 28 29 27 25 25 27 27 26 28 31 34 39 42 45 46 47 47 45 45 48 46 38 35 35 36 38 37 34 35 36 36 35 33 32 33 31 28 27 28 29 29 28 29 31 33 35 36 36 38 41 42 41 44 47 48 50 53 54 55 56 56 57 56 54 56 54 50 53 60 65
50 49 48 47 45 44 43 39 37 36 35 33 33 32 32 31 30 29 28 28 29 27 27 29 28 28 29 30 31 35 38 41 45 48 48 45 45 49 47 41 37 37 38 39 37 35 36 38 38 36 34 34 35 33 30 29 28 29 30 29 29 30 33 34 35 36 37 39 40 40 42 44 45 46 49 51 53 55 57 59 57 55 56 56 51 51 55 60
50 50 49 48 47 45 44 41 38 36 35 34 34 33 33 33 32 30 28 28 31 30 29 30 31 31 32 32 32 33 36 40 44 47 48 47 46 47 46 42 39 39 40 41 38 37 38 39 39 37 35 35 35 34 33 31 28 29 30 30 29 30 32 33 34 35 36 38 39 40 41 42 42 43 44 47 51 53 55 58 58 56 56 57 55 52 51 54
51 51 49 49 48 47 46 43 40 38 37 36 35 34 35 35 34 32 29 29 33 34 32 32 33 33 34 34 34 34 34 38 43 45 46 46 45 44 43 43 43 42 42 42 40 39 40 40 39 37 36 36 35 34 34 33 30 29 31 31 31 31 32 33 34 34 34 35 37 40 39 38 39 42 42 44 47 50 53 56 57 58 59 59 59 57 52 51
53 52 50 49 49 48 47 45 43 41 40 39 37 37 37 38 37 36 34 33 35 36 35 34 35 36 36 36 36 35 33 35 39 43 43 43 44 44 44 45 46 44 43 43 42 41 42 41 39 37 37 38 36 34 35 35 31 30 32 31 31 32 33 33 34 33 32 33 36 37 36 35 38 42 43 43 43 45 49 51 52 55 59 60 61 61 59 56
Wind_Direction
262 257 251 245 241 239 239 240 242 244 245 245 245 245 244 242 240 238 237 237 238 239 239 238 236 234 232 231 231 230 229 228 227 226 225 226 226 226 226 225 225 224 223 222 222 222 221 222 219 209 204 196 200 215 222 222 219 222 230 243 262 276 287 305 315 301 329 346 341 341 339 347 360 5 10 13 14 16 16 17 18 20 21 22 22 21 21 22
268 266 262 256 252 248 245 244 243 245 246 247 247 247 247 246 245 243 241 238 237 237 238 239 238 237 234 232 231 231 230 229 228 227 226 226 225 225 225 225 225 224 223 222 221 221 221 221 219 213 206 204 216 219 220 225 220 221 230 240 252 263 275 293 313 311 330 333 332 337 331 336 351 360 7 12 15 16 17 17 18 20 20 22 23 22 22 22
272 272 272 269 267 263 258 254 251 251 250 250 250 249 248 248 248 247 246 244 241 239 238 238 239 239 237 234 232 232 231 230 229 228 227 226 226 225 225 225 224 224 223 222 222 221 220 220 218 216 210 210 223 225 222 227 224 223 232 238 245 257 266 274 320 345 333 325 330 329 324 327 339 352 1 8 14 16 17 17 18 19 20 21 22 23 22 22
274 275 277 278 279 277 273 268 264 262 259 257 255 253 251 250 249 248 248 247 246 244 241 239 238 239 239 238 235 233 232 232 230 229 228 227 226 225 225 225 224 224 223 222 222 221 220 220 218 216 214 214 220 222 219 222 222 222 230 234 244 257 259 264 302 333 319 313 313 307 316 320 328 343 352 3 12 16 16 18 17 18 19 20 21 23 23 22
275 278 281 284 286 287 284 281 277 274 271 267 263 259 255 252 251 250 249 248 248 248 246 243 240 238 238 239 238 236 234 233 232 230 229 228 227 226 225 225 224 223 222 222 221 221 220 219 218 217 216 215 215 219 218 221 223 222 227 230 241 251 260 274 289 311 298 288 278 283 302 308 318 333 345 358 7 15 16 17 17 17 18 19 20 22 23 23
275 280 285 289 292 292 292 290 287 283 279 275 270 265 261 257 254 253 251 250 249 248 248 247 244 241 239 238 238 238 236 234 233 232 230 229 228 226 225 225 224 223 222 221 221 221 220 220 219 218 218 217 216 219 219 223 223 219 223 223 236 249 258 268 251 245 266 263 262 271 283 291 309 321 334 350 359 13 14 15 17 16 17 18 19 20 21 23
276 281 286 290 293 295 296 295 293 289 285 281 276 272 267 263 259 256 254 252 251 249 249 249 248 246 242 240 238 238 237 236 234 233 232 230 229 228 226 225 225 224 222 221 221 220 221 220 220 219 219 218 219 220 218 221 222 216 217 214 221 219 213 247 232 220 235 238 246 257 266 281 301 306 318 338 349 7 11 13 16 15 15 16 18 18 20 23
276 280 285 289 293 296 297 296 294 291 289 285 281 277 273 269 264 260 257 255 253 251 250 249 249 248 246 243 240 239 238 237 236 234 233 231 230 229 227 226 225 225 224 222 221 221 221 221 220 220 219 218 218 219 216 217 220 217 212 207 211 201 197 228 230 223 229 233 238 245 257 273 283 288 302 326 339 357 8 12 14 14 14 14 16 17 19 22
275 279 284 288 290 293 295 294 293 291 289 286 283 280 277 274 271 267 262 258 256 254 252 250 249 248 247 246 243 241 238 237 237 236 235 233 231 230 229 227 225 225 225 223 222 221 221 221 221 221 220 217 217 218 216 216 218 217 211 209 214 213 215 228 232 231 234 237 239 244 255 266 270 276 291 313 329 344 0 9 12 12 14 13 15 17 19 21
275 280 283 286 288 290 291 291 290 289 287 285 283 281 280 278 276 273 269 264 261 258 255 252 250 249 248 247 245 243 240 238 237 236 236 235 233 231 229 228 226 225 225 224 223 222 222 222 222 222 221 218 217 218 217 217 218 217 213 213 217 221 221 225 230 234 236 239 242 245 252 262 267 271 284 304 322 336 348 4 10 9 13 14 13 17 18 20
277 281 284 286 288 289 290 289 288 287 285 284 283 281 281 280 279 277 274 270 266 262 259 255 252 250 248 247 246 245 242 239 238 237 236 236 235 233 231 229 228 226 225 224 223 223 222 222 222 222 221 219 217 217 218 219 219 216 213 211 210 214 216 217 223 230 233 237 241 240 242 256 265 269 280 298 316 326 333 353 9 6 11 15 13 15 17 18
278 282 285 287 288 289 288 287 286 285 284 283 282 282 281 281 280 278 277 274 271 267 263 259 255 252 249 247 246 245 244 241 238 237 236 235 235 234 232 230 229 227 225 224 223 223 222 222 223 222 222 220 217 217 218 220 221 218 215 214 215 221 225 219 217 228 233 233 235 235 236 245 255 263 276 293 303 311 321 341 5 4 7 15 14 14 16 17
280 283 286 288 289 288 287 286 285 283 283 282 282 282 282 281 280 279 278 276 273 270 267 263 259 255 252 248 246 245 244 242 240 238 236 235 235 234 234 232 230 229 227 225 223 223 223 222 223 222 223 221 219 218 218 219 222 221 219 219 222 229 234 229 223 228 233 232 231 231 233 239 246 256 270 281 284 290 309 328 356 3 4 13 16 15 15 17
282 286 288 288 288 288 287 285 284 283 282 282 281 282 282 281 280 279 278 276 274 271 269 266 262 259 255 251 248 246 244 243 241 238 237 236 235 234 234 233 232 230 228 226 224 223 222 222 223 223 223 222 221 220 219 219 221 221 222 223 224 227 232 234 230 228 230 233 232 229 229 234 239 246 262 273 273 279 297 314 343 360 1 9 17 16 14 16
284 287 287 287 286 286 285 285 284 283 282 282 282 282 282 282 282 280 278 276 274 272 270 268 265 262 258 255 250 247 244 243 241 239 238 236 235 234 233 233 232 231 230 228 225 223 222 222 222 222 222 222 222 221 221 220 220 221 222 223 224 225 228 232 231 226 226 231 230 226 225 227 227 226 243 267 269 277 288 300 326 351 358 3 15 18 16 16
284 285 285 285 285 284 284 284 283 282 282 283 283 283 284 284 283 281 279 277 275 273 271 270 268 265 262 258 253 249 246 243 241 239 238 237 236 235 234 233 232 231 231 229 227 225 223 222 222 222 222 222 222 222 222 222 222 222 222 223 223 224 227 229 230 227 227 228 228 225 224 224 220 214 227 263 270 274 279 287 306 332 349 356 7 16 19 17
282 283 284 285 284 283 283 283 282 282 283 284 285 286 287 286 284 283 280 277 276 274 273 271 270 268 265 261 257 252 248 245 242 240 238 237 236 235 234 233 231 231 231 230 229 226 224 223 222 221 221 221 222 222 222 222 223 223 223 223 223 224 226 227 228 227 228 229 227 225 225 227 222 214 221 248 265 270 270 273 286 304 328 348 360 10 19 18
282 283 284 284 283 282 281 282 283 284 286 287 288 288 288 287 285 284 282 279 277 276 275 273 271 269 267 264 261 256 252 248 244 241 239 237 236 235 234 233 231 230 230 231 230 228 226 224 223 222 221 221 222 222 222 223 224 224 224 224 223 223 224 226 226 225 226 228 228 224 224 227 224 218 217 226 254 263 260 260 270 279 299 327 348 1 14 18
280 281 281 281 281 282 282 283 285 287 288 288 289 289 288 287 286 285 283 281 279 278 277 275 273 270 268 266 264 260 256 252 248 244 241 238 236 235 234 233 232 230 230 231 231 230 228 226 225 224 223 222 222 222 222 223 224 224 224 225 224 223 223 224 225 225 224 227 229 225 223 226 223 219 216 224 253 256 244 247 258 262 275 299 328 349 3 14
275 276 277 279 281 283 285 286 287 288 289 289 288 288 288 287 286 285 283 282 281 280 279 277 275 272 269 267 265 262 259 256 252 248 244 240 237 236 235 234 233 231 230 230 231 231 230 228 227 225 224 223 223 222 223 223 224 224 224 224 224 224 223 223 224 225 225 226 229 227 225 227 225 221 219 226 248 246 231 237 248 253 261 274 298 326 348 3
275 275 277 279 281 283 285 287 288 289 289 289 288 288 288 287 287 285 283 282 282 281 279 277 275 273 270 268 265 263 261 258 255 252 248 244 240 237 236 234 233 231 230 229 230 231 230 229 228 227 225 224 223 223 223 223 223 224 224 224 224 224 223 222 224 225 225 224 226 226 224 223 223 222 220 220 229 237 235 241 246 248 253 257 273 296 325 345
278 279 280 281 282 284 285 286 288 289 289 289 289 288 287 287 285 284 284 284 283 282 280 278 276 273 271 269 266 264 261 258 255 253 250 247 243 240 237 235 234 232 231 229 229 230 230 230 229 228 227 225 224 224 223 223 223 224 224 224 224 224 223 223 223 225 225 223 223 223 221 221 221 221 222 219 223 241 246 243 245 245 247 250 258 270 290 318
281 282 283 283 284 284 285 285 286 288 289 289 289 288 286 285 284 284 284 284 283 282 280 277 275 273 271 269 267 265 263 260 256 253 251 248 246 242 239 237 235 233 231 230 229 229 229 230 230 230 229 227 226 225 225 224 224 224 224 224 224 224 224 223 223 224 224 223 222 223 222 223 223 221 223 221 222 241 247 242 243 243 242 245 249 256 265 281
281 282 283 284 284 285 285 285 285 286 286 286 286 286 285 285 284 283 283 282 281 279 277 275 273 272 270 268 267 266 264 263 260 256 253 250 247 245 242 239 237 234 232 231 230 229 229 229 230 230 229 229 228 226 226 226 225 225 225 225 224 224 223 223 223 223 224 224 223 223 223 223 225 223 223 222 218 225 235 236 237 238 238 240 242 247 252 259
281 282 283 284 285 285 285 285 285 285 284 284 284 283 284 284 283 282 281 280 278 276 274 272 271 269 267 266 266 266 265 265 265 262 260 255 251 248 245 242 239 236 234 233 231 230 228 228 229 229 229 230 230 228 228 227 226 226 225 225 224 224 224 223 223 223 223 224 223 223 223 221 223 223 222 224 220 218 223 225 223 226 232 235 238 242 246 250
280 281 282 284 285 285 284 283 283 284 283 283 282 281 282 282 281 280 278 277 275 273 271 270 270 267 266 266 267 267 268 268 268 268 267 263 258 254 250 247 243 239 236 234 233 232 229 228 229 229 229 230 231 230 230 229 228 226 225 225 224 224 224 223 223 223 223 223 223 223 223 220 221 223 222 224 225 223 224 221 218 222 227 231 234 238 241 245
280 280 279 281 282 283 284 284 282 282 282 280 279 280 280 279 279 278 276 273 270 272 272 269 269 269 267 267 267 269 271 272 273 272 270 268 265 262 257 253 248 243 240 236 234 233 231 230 230 229 229 230 230 231 231 230 230 227 226 226 225 224 224 224 223 223 223 223 222 223 223 221 221 222 223 224 226 227 228 226 224 226 230 230 231 234 237 239
279 278 277 277 278 280 281 282 281 279 278 277 276 277 278 278 277 276 275 270 267 272 274 270 270 271 268 267 268 271 273 275 277 275 273 271 269 266 263 259 254 248 244 240 237 236 234 233 233 232 230 230 230 230 231 231 231 229 227 227 226 225 224 224 223 223 223 223 222 222 222 221 221 222 223 224 226 227 229 230 229 228 231 230 228 232 236 237
276 276 277 277 276 277 277 277 278 276 273 272 272 274 275 275 275 274 274 271 269 272 273 271 272 269 266 267 270 274 278 280 281 281 280 276 272 268 264 262 259 254 250 245 241 240 237 234 234 233 231 230 230 230 231 232 231 230 229 228 227 226 225 224 224 223 223 223 223 222 222 222 221 221 222 222 224 225 226 230 231 228 228 228 227 230 234 236
274 274 276 277 275 274 272 272 274 274 271 269 268 270 270 270 272 272 271 273 275 273 270 271 272 268 267 272 277 281 284 285 286 287 287 283 278 274 268 264 262 259 256 250 245 243 240 236 235 235 233 231 230 229 229 231 231 231 230 229 228 228 226 225 224 224 223 224 223 222 222 222 220 220 222 222 223 222 222 227 232 230 228 228 228 230 232 234
272 272 274 277 275 274 273 272 272 274 273 272 270 268 268 268 268 267 268 273 277 275 271 272 272 269 270 275 279 284 286 287 287 288 289 288 284 280 276 271 266 262 258 254 250 247 244 240 238 236 234 233 232 230 229 229 229 230 230 229 229 229 228 226 225 224 224 224 224 223 222 221 220 220 221 222 223 222 220 224 230 232 230 230 231 232 234 235
271 272 274 276 275 275 276 275 275 276 277 277 275 273 270 268 266 266 269 271 275 278 275 271 270 271 271 274 279 282 284 287 287 286 286 285 284 282 280 277 274 269 263 258 254 252 248 244 240 237 235 234 233 232 231 229 228 228 229 230 229 229 229 227 226 225 224 224 224 224 222 221 220 220 220 222 223 222 220 222 228 230 228 228 227 230 233 231
272 273 274 275 275 276 276 277 277 278 279 279 278 277 274 271 269 271 272 269 268 277 276 270 269 270 270 272 278 281 282 286 287 286 285 283 281 281 280 280 280 277 271 265 260 255 252 247 243 240 237 235 233 233 232 230 228 227 227 228 229 229 229 228 227 225 224 224 223 223 222 221 220 220 220 222 223 223 221 221 226 228 226 223 219 221 228 225
273 274 275 276 276 276 277 278 278 278 279 279 279 278 276 274 274 275 275 270 265 268 272 270 268 270 271 272 275 279 281 284 286 285 284 281 280 280 280 281 282 281 278 273 268 261 256 252 248 243 239 238 235 233 232 231 230 228 227 227 227 229 228 228 227 226 225 225 224 223 222 221 220 219 219 221 222 223 222 222 226 229 229 225 218 218 226 225
275 277 277 278 279 280 280 280 281 281 281 280 280 278 276 277 277 276 275 273 267 263 266 269 269 269 272 272 274 277 280 282 284 284 282 280 279 278 280 281 282 282 282 280 275 269 262 257 254 249 243 240 237 234 233 232 231 229 227 226 225 227 227 227 227 227 226 226 226 225 223 221 219 219 219 219 221 221 221 222 225 228 231 230 227 224 226 226
276 277 278 279 280 280 280 281 281 282 281 281 280 277 277 278 278 277 276 274 270 265 263 266 266 266 268 272 274 276 278 281 282 281 279 278 277 276 277 279 279 280 282 282 279 276 271 263 258 254 248 244 240 236 234 233 232 230 228 226 224 225 227 227 228 228 228 227 227 227 225 222 220 219 219 220 221 221 221 222 223 225 229 230 229 226 224 224
275 276 276 277 277 277 277 276 277 277 278 278 276 274 275 276 276 277 276 273 270 268 265 264 264 264 265 268 271 274 276 278 279 278 277 276 275 274 273 274 276 277 279 279 279 280 278 270 264 259 254 249 244 238 235 233 232 231 229 227 225 225 227 228 228 228 228 228 227 227 226 223 220 220 219 220 222 222 221 223 224 225 226 228 228 227 224 226
272 273 273 273 273 273 273 274 274 274 274 273 272 271 272 272 272 273 272 270 270 270 268 265 264 265 266 266 268 271 273 275 277 276 276 276 275 273 272 271 272 274 275 276 277 280 280 275 269 263 258 254 249 243 238 234 232 231 230 229 227 225 226 227 228 228 228 228 228 228 227 224 220 221 220 219 221 222 221 223 225 225 225 226 228 230 229 228
270 269 268 268 270 272 274 275 276 276 274 272 271 270 269 268 268 268 267 267 268 270 268 266 266 266 266 268 269 268 268 271 274 275 274 275 275 274 272 270 269 271 272 273 275 278 278 277 274 267 261 257 253 248 243 238 235 232 230 230 229 227 226 226 227 228 228 228 229 229 229 226 221 220 221 220 220 222 221 222 225 226 226 227 229 232 232 229
268 266 265 267 270 273 275 278 279 278 277 276 274 272 270 267 266 265 264 263 265 266 266 267 268 266 264 266 268 268 266 265 267 272 274 273 272 272 272 270 268 268 268 270 274 277 278 279 279 274 266 260 256 252 246 242 239 234 231 230 230 229 227 226 227 227 228 229 229 229 229 227 224 221 222 221 220 221 221 221 224 226 227 229 231 232 231 229
266 264 264 267 271 274 276 279 280 280 279 278 277 274 271 267 264 263 262 263 264 264 264 265 266 266 263 262 263 266 268 264 261 267 272 270 268 269 271 270 268 267 267 268 271 275 277 279 281 279 274 267 261 255 250 246 244 239 234 231 230 230 228 228 228 228 228 228 229 229 229 228 226 223 222 222 221 221 221 221 222 226 229 228 228 229 229 228
265 263 264 267 270 273 276 278 280 280 280 279 278 275 272 268 265 263 261 262 263 262 262 263 264 264 263 262 261 263 266 265 262 261 265 266 266 267 268 268 268 267 267 268 269 272 275 278 279 278 276 272 266 260 255 251 247 244 239 235 234 233 232 230 229 229 228 229 228 229 229 229 228 225 223 223 223 222 221 220 218 221 229 230 227 227 227 225
263 261 262 266 268 271 274 276 279 281 281 280 278 276 274 269 267 265 262 261 262 262 262 263 264 264 263 261 261 262 262 264 264 259 259 262 263 265 266 266 267 268 267 267 268 270 273 275 275 277 278 276 273 265 259 253 250 247 243 239 237 236 236 234 232 231 230 229 229 229 229 229 228 226 223 222 222 222 221 219 214 213 223 228 227 228 229 226
262 259 260 263 265 267 270 273 278 282 283 282 280 277 275 272 269 267 264 262 262 261 261 262 263 264 263 261 260 261 260 261 262 259 258 260 260 262 265 264 264 266 265 266 268 269 271 272 274 277 278 277 273 268 262 258 254 251 247 243 240 237 237 236 235 234 232 231 231 231 230 229 229 228 225 223 222 222 221 220 216 215 220 226 226 227 229 229
261 258 258 260 262 265 268 271 275 280 281 280 277 275 272 269 266 265 264 263 263 262 261 262 263 263 262 261 260 261 259 258 259 259 258 259 260 261 263 262 260 263 265 266 268 268 270 271 273 274 275 274 273 270 267 262 257 254 250 246 243 240 238 237 237 236 235 233 232 232 231 230 229 228 226 225 223 222 222 221 220 219 223 227 228 227 228 228
260 257 256 257 260 263 266 269 272 275 278 277 274 271 267 263 261 262 262 261 262 265 266 264 264 263 262 260 259 260 259 256 257 257 255 257 259 260 260 259 257 261 265 265 265 267 269 272 272 271 271 273 273 271 268 264 261 258 253 248 244 242 239 238 238 237 237 235 233 233 231 230 230 228 226 225 223 221 221 222 223 223 224 228 231 231 230 228
259 255 255 256 259 262 264 267 269 271 275 277 274 269 266 262 260 259 261 262 260 263 268 268 267 268 268 265 261 259 258 255 254 255 255 256 258 259 258 257 257 259 262 262 264 266 268 269 270 269 270 271 271 270 268 266 263 261 258 252 247 245 242 240 239 238 239 238 236 234 232 230 230 228 226 224 223 222 222 222 223 223 223 226 231 233 231 229
257 254 254 255 257 260 263 264 266 268 272 275 274 270 267 265 263 259 260 264 262 261 266 269 270 272 272 270 265 261 258 255 253 254 254 254 255 257 258 257 256 258 260 261 263 265 265 266 267 268 269 268 267 268 268 266 263 261 261 257 251 247 245 242 240 238 238 239 237 236 235 233 230 230 228 225 223 222 222 224 225 223 222 224 229 232 231 229
256 254 253 254 255 257 260 261 262 265 269 272 273 272 270 269 269 265 263 267 268 265 267 271 273 274 273 270 268 264 259 256 253 251 251 250 251 255 256 256 256 257 258 260 262 263 263 264 265 266 267 267 266 267 267 266 264 261 260 259 254 250 247 245 243 239 238 238 236 234 235 234 231 231 231 228 225 223 223 224 226 226 223 223 229 233 230 229
255 253 253 255 256 256 257 258 259 262 266 269 270 272 272 271 271 271 270 272 273 271 272 275 276 278 278 273 267 263 259 256 253 249 247 246 247 251 255 256 256 256 257 259 260 261 262 263 264 265 266 266 266 266 265 265 263 259 257 257 255 251 249 247 246 242 239 239 237 234 233 232 231 230 231 229 227 225 224 224 226 227 225 224 228 232 230 228
253 253 253 255 256 256 256 256 257 259 262 265 267 269 271 272 273 274 275 277 279 277 276 278 280 281 281 277 268 262 259 256 254 250 247 245 246 249 253 256 256 254 255 256 257 259 260 262 264 264 265 264 263 264 264 263 262 259 256 254 254 252 250 248 246 244 242 241 239 237 233 231 230 229 229 228 227 225 225 225 227 229 228 227 228 231 233 231
253 252 252 254 256 257 256 255 256 257 259 263 266 267 268 271 273 275 277 279 282 282 280 281 283 284 283 280 271 263 259 258 256 253 248 243 243 246 248 251 252 252 251 253 255 258 260 263 264 263 262 262 261 261 260 260 261 261 257 254 254 254 253 250 248 246 245 243 242 240 236 232 231 229 225 224 226 225 225 226 228 229 230 232 232 233 235 234
Height
10924 10924 10925 10925 10925 10925 10925 10925 10924 10924 10924 10924 10924 10924 10924 10924 10924 10925 10925 10925 10926 10926 10927 10928 10929 10931 10932 10934 10935 10937 10938 10940 10942 10945 10947 10949 10951 10954 10957 10961 10964 10967 10970 10972 10975 10977 10979 10980 10982 10985 10986 10988 10986 10981 10978 10978 10980 10982 10984 10985 10986 10987 10988 10988 10988 10988 10987 10987 10986 10986 10985 10985 10984 10983 10982 10980 10979 10977 10974 10971 10968 10965 10963 10960 10957 10954 10951 10948
10923 10923 10923 10924 10924 10924 10924 10924 10924 10923 10923 10923 10923 10923 10923 10923 10923 10923 10923 10923 10924 10925 10925 10926 10927 10928 10930 10931 10933 10934 10936 10937 10939 10942 10944 10946 10948 10951 10954 10957 10960 10964 10967 10970 10972 10974 10976 10978 10980 10982 10983 10983 10981 10979 10979 10979 10981 10982 10983 10986 10987 10988 10988 10989 10989 10989 10988 10987 10986 10986 10985 10985 10985 10984 10983 10981 10980 10978 10976 10974 10970 10967 10965 10962 10959 10956 10954 10951
10922 10922 10922 10922 10922 10923 10923 10923 10922 10922 10922 10922 10922 10921 10921 10921 10921 10921 10921 10922 10922 10923 10923 10924 10925 10926 10927 10929 10930 10931 10933 10935 10937 10939 10941 10943 10946 10948 10951 10954 10957 10960 10964 10967 10969 10971 10973 10975 10977 10979 10979 10979 10977 10978 10979 10979 10980 10982 10984 10986 10987 10988 10989 10990 10990 10989 10988 10988 10986 10986 10985 10985 10985 10984 10983 10982 10981 10979 10977 10975 10972 10969 10967 10964 10961 10958 10956 10953
10921 10921 10921 10921 10921 10921 10921 10921 10921 10921 10921 10920 10920 10920 10919 10919 10919 10919 10919 10920 10920 10920 10921 10922 10923 10924 10925 10926 10927 10929 10930 10932 10934 10936 10938 10940 10942 10945 10948 10951 10954 10957 10960 10963 10966 10968 10970 10972 10974 10975 10976 10976 10975 10976 10978 10979 10980 10982 10984 10986 10988 10989 10990 10991 10991 10988 10986 10987 10987 10986 10986 10985 10985 10984 10984 10983 10982 10980 10978 10976 10974 10971 10969 10966 10963 10961 10958 10955
10920 10920 10920 10920 10920 10920 10920 10920 10920 10920 10919 10919 10918 10918 10918 10918 10918 10918 10918 10918 10918 10918 10919 10920 10921 10921 10922 10923 10924 10926 10928 10929 10931 10933 10935 10937 10939 10942 10944 10947 10950 10953 10956 10959 10962 10964 10966 10968 10970 10971 10973 10974 10974 10975 10978 10980 10981 10982 10983 10985 10987 10989 10990 10991 10992 10988 10983 10985 10986 10986 10986 10985 10985 10985 10984 10983 10982 10981 10979 10977 10975 10973 10971 10968 10966 10963 10960 10957
10919 10919 10919 10919 10919 10919 10919 10919 10918 10918 10917 10917 10917 10916 10916 10916 10916 10916 10916 10916 10916 10916 10917 10917 10918 10919 10920 10921 10922 10923 10925 10926 10928 10930 10932 10934 10936 10939 10941 10944 10946 10949 10952 10955 10958 10960 10963 10964 10966 10968 10970 10972 10973 10975 10979 10981 10980 10981 10982 10984 10985 10988 10990 10990 10991 10989 10982 10981 10983 10984 10985 10985 10985 10984 10984 10984 10983 10981 10980 10978 10977 10975 10973 10970 10968 10965 10962 10960
10918 10918 10918 10918 10918 10918 10918 10917 10917 10916 10916 10915 10915 10914 10914 10914 10914 10914 10914 10914 10914 10914 10914 10915 10915 10916 10917 10918 10919 10920 10922 10923 10925 10927 10928 10931 10933 10935 10938 10940 10943 10945 10948 10951 10954 10957 10959 10961 10963 10965 10967 10970 10972 10974 10978 10979 10979 10979 10979 10981 10983 10985 10989 10987 10986 10985 10979 10979 10981 10983 10984 10985 10985 10984 10984 10985 10984 10982 10981 10979 10978 10976 10975 10972 10970 10967 10964 10961
10917 10917 10917 10917 10917 10917 10916 10916 10915 10915 10914 10913 10913 10912 10912 10912 10912 10912 10912 10912 10912 10912 10912 10912 10913 10914 10914 10915 10917 10918 10919 10920 10922 10923 10925 10927 10929 10932 10934 10937 10939 10941 10944 10948 10950 10953 10955 10957 10959 10962 10964 10967 10969 10971 10975 10977 10976 10975 10976 10978 10977 10980 10984 10978 10976 10977 10976 10979 10981 10982 10984 10984 10984 10984 10984 10985 10984 10983 10982 10980 10979 10978 10976 10974 10972 10969 10966 10963
10916 10916 10916 10916 10916 10915 10915 10914 10914 10913 10912 10911 10911 10910 10910 10910 10910 10910 10910 10910 10910 10910 10910 10910 10910 10911 10912 10913 10914 10915 10916 10917 10919 10920 10922 10924 10926 10928 10930 10933 10936 10938 10941 10944 10947 10949 10952 10954 10956 10958 10961 10964 10966 10968 10972 10973 10971 10971 10973 10974 10974 10975 10975 10970 10970 10974 10976 10979 10980 10982 10983 10984 10984 10984 10984 10984 10984 10983 10982 10981 10980 10979 10977 10975 10973 10971 10968 10966
10915 10915 10915 10915 10915 10914 10914 10913 10912 10911 10910 10910 10909 10909 10908 10908 10908 10908 10907 10907 10907 10907 10907 10907 10908 10908 10909 10910 10911 10911 10913 10915 10916 10917 10919 10920 10922 10924 10927 10929 10932 10934 10937 10940 10943 10946 10948 10951 10953 10955 10957 10961 10964 10966 10969 10969 10967 10968 10971 10973 10973 10973 10970 10969 10970 10973 10976 10978 10980 10982 10983 10983 10984 10983 10983 10984 10984 10983 10982 10982 10981 10980 10978 10977 10975 10973 10970 10968
10914 10914 10914 10914 10913 10913 10912 10911 10910 10909 10909 10908 10907 10907 10906 10906 10906 10905 10905 10905 10905 10905 10905 10905 10905 10906 10906 10907 10908 10908 10910 10911 10913 10914 10915 10917 10918 10920 10923 10925 10928 10931 10934 10937 10939 10942 10945 10947 10949 10951 10954 10958 10961 10963 10965 10965 10963 10966 10970 10971 10972 10972 10969 10969 10971 10972 10974 10977 10979 10981 10982 10982 10983 10983 10983 10983 10984 10983 10983 10982 10981 10981 10979 10978 10976 10974 10972 10971
10912 10912 10912 10912 10912 10911 10910 10909 10908 10908 10907 10906 10905 10905 10905 10904 10904 10903 10903 10903 10903 10903 10903 10902 10903 10903 10903 10904 10905 10905 10907 10908 10910 10911 10912 10913 10915 10917 10919 10921 10924 10927 10930 10933 10936 10938 10941 10943 10945 10947 10950 10954 10957 10959 10961 10960 10960 10964 10967 10967 10968 10968 10967 10969 10972 10972 10973 10976 10978 10980 10980 10981 10982 10982 10983 10983 10983 10983 10983 10983 10982 10981 10980 10979 10977 10975 10974 10972
10911 10910 10910 10910 10910 10909 10908 10907 10906 10906 10905 10904 10903 10903 10903 10902 10902 10901 10901 10901 10900 10900 10900 10900 10900 10900 10901 10901 10902 10903 10904 10905 10906 10907 10909 10910 10911 10913 10915 10917 10920 10923 10926 10929 10932 10934 10937 10939 10941 10943 10946 10950 10952 10955 10957 10957 10958 10962 10964 10964 10965 10965 10965 10968 10972 10972 10973 10975 10977 10978 10979 10980 10981 10982 10983 10983 10983 10984 10984 10983 10982 10982 10981 10980 10978 10977 10975 10973
10909 10909 10908 10908 10907 10907 10906 10905 10904 10903 10903 10902 10901 10901 10900 10900 10900 10899 10899 10898 10898 10898 10898 10898 10898 10898 10898 10899 10899 10900 10901 10902 10903 10904 10905 10906 10908 10910 10912 10914 10916 10919 10921 10924 10927 10930 10933 10935 10937 10939 10942 10945 10948 10951 10953 10954 10955 10958 10961 10962 10962 10963 10964 10966 10970 10972 10972 10973 10975 10977 10978 10979 10980 10981 10982 10983 10983 10984 10984 10983 10983 10982 10982 10981 10979 10977 10976 10975
10907 10906 10906 10905 10905 10904 10904 10903 10902 10901 10901 10900 10899 10899 10898 10898 10897 10897 10896 10896 10895 10895 10895 10895 10895 10895 10895 10896 10896 10897 10898 10899 10900 10901 10902 10903 10904 10906 10908 10910 10913 10915 10917 10920 10923 10926 10928 10930 10932 10934 10937 10940 10944 10946 10948 10950 10952 10954 10957 10958 10959 10961 10962 10964 10968 10971 10972 10972 10974 10976 10977 10978 10979 10980 10982 10983 10983 10983 10984 10983 10983 10982 10982 10981 10980 10979 10977 10976
10904 10904 10903 10903 10902 10902 10901 10900 10900 10899 10898 10898 10897 10897 10896 10896 10895 10895 10894 10893 10893 10893 10893 10892 10892 10892 10893 10893 10893 10894 10895 10896 10896 10897 10898 10900 10901 10903 10904 10906 10909 10910 10912 10915 10918 10921 10923 10926 10928 10930 10933 10936 10939 10941 10943 10946 10948 10950 10952 10955 10957 10959 10961 10963 10966 10969 10970 10971 10973 10975 10976 10977 10978 10979 10981 10982 10982 10982 10983 10983 10982 10982 10982 10981 10981 10979 10978 10977
10902 10901 10901 10900 10900 10899 10899 10898 10897 10896 10896 10895 10895 10894 10894 10893 10893 10892 10892 10891 10890 10890 10890 10890 10890 10889 10890 10890 10890 10891 10892 10892 10893 10894 10895 10897 10898 10899 10901 10903 10905 10906 10908 10910 10913 10916 10918 10921 10924 10926 10928 10931 10933 10936 10938 10941 10943 10945 10949 10952 10954 10956 10959 10961 10963 10966 10967 10968 10971 10973 10974 10975 10976 10978 10979 10980 10981 10982 10982 10982 10981 10982 10982 10981 10981 10980 10979 10978
10899 10899 10898 10897 10897 10896 10896 10895 10895 10894 10893 10893 10893 10892 10891 10891 10890 10889 10889 10888 10888 10887 10887 10887 10887 10887 10887 10887 10887 10888 10888 10889 10890 10891 10892 10893 10894 10896 10897 10899 10901 10902 10904 10906 10908 10911 10914 10916 10919 10922 10924 10926 10928 10931 10934 10936 10938 10942 10945 10948 10950 10953 10957 10959 10960 10962 10964 10966 10969 10971 10973 10974 10975 10976 10978 10979 10980 10981 10981 10981 10981 10981 10981 10981 10981 10981 10980 10979
10897 10896 10895 10895 10894 10893 10893 10893 10892 10892 10891 10890 10890 10889 10889 10888 10888 10887 10886 10886 10885 10885 10885 10884 10884 10884 10884 10884 10884 10884 10885 10886 10887 10888 10889 10890 10891 10892 10893 10895 10897 10899 10901 10902 10904 10906 10909 10912 10915 10917 10919 10921 10924 10927 10929 10931 10934 10938 10940 10943 10946 10950 10953 10955 10957 10959 10962 10964 10967 10970 10971 10972 10973 10975 10976 10978 10979 10980 10980 10980 10981 10981 10981 10981 10981 10981 10980 10980
10894 10893 10893 10892 10892 10891 10890 10890 10890 10889 10888 10888 10887 10887 10886 10885 10885 10884 10883 10883 10882 10882 10882 10881 10881 10881 10881 10881 10881 10881 10882 10883 10884 10884 10885 10887 10888 10889 10890 10891 10893 10895 10897 10898 10900 10902 10905 10907 10910 10912 10914 10917 10920 10923 10924 10926 10929 10932 10934 10938 10942 10946 10949 10952 10955 10957 10960 10962 10964 10967 10969 10970 10971 10973 10974 10976 10978 10978 10979 10979 10980 10980 10980 10981 10981 10981 10981 10980
10891 10890 10890 10890 10889 10889 10888 10887 10887 10886 10886 10885 10884 10884 10883 10882 10882 10881 10880 10880 10879 10879 10879 10879 10878 10878 10878 10877 10878 10878 10878 10879 10880 10881 10882 10883 10884 10885 10886 10888 10889 10891 10893 10895 10896 10898 10900 10902 10905 10907 10910 10913 10915 10917 10918 10921 10923 10925 10929 10934 10937 10941 10945 10949 10952 10953 10956 10959 10961 10964 10966 10967 10969 10970 10972 10975 10976 10977 10978 10978 10979 10979 10979 10980 10980 10981 10981 10981
10887 10887 10887 10887 10887 10886 10886 10885 10884 10883 10883 10882 10881 10881 10880 10880 10879 10878 10877 10877 10876 10876 10876 10876 10875 10875 10875 10874 10874 10874 10875 10875 10876 10877 10878 10879 10881 10882 10883 10884 10885 10887 10889 10891 10892 10893 10895 10897 10900 10902 10905 10907 10909 10911 10914 10916 10918 10921 10925 10929 10933 10937 10941 10945 10948 10950 10953 10956 10958 10961 10963 10965 10967 10968 10970 10973 10975 10976 10976 10977 10977 10978 10978 10979 10980 10980 10981 10981
10884 10884 10884 10884 10883 10883 10883 10882 10882 10881 10880 10879 10878 10877 10877 10877 10876 10875 10875 10874 10873 10873 10873 10873 10872 10872 10872 10872 10871 10871 10872 10872 10873 10874 10874 10876 10877 10878 10879 10880 10882 10883 10885 10886 10888 10889 10891 10894 10896 10897 10899 10901 10904 10907 10909 10911 10914 10918 10921 10925 10929 10934 10937 10941 10944 10946 10949 10952 10955 10958 10961 10963 10964 10965 10967 10970 10973 10973 10973 10974 10975 10976 10977 10978 10979 10979 10980 10981
10881 10881 10880 10880 10880 10880 10880 10879 10879 10879 10877 10876 10875 10874 10874 10874 10873 10873 10872 10871 10870 10870 10870 10870 10870 10869 10869 10869 10868 10869 10869 10869 10870 10870 10871 10872 10873 10874 10875 10876 10878 10880 10881 10882 10884 10886 10888 10890 10890 10891 10894 10896 10899 10902 10905 10908 10911 10915 10918 10921 10925 10929 10933 10937 10940 10942 10946 10949 10952 10955 10957 10959 10961 10962 10965 10967 10968 10968 10967 10969 10972 10973 10974 10976 10977 10978 10980 10980
10878 10878 10877 10877 10877 10877 10877 10876 10876 10875 10875 10874 10872 10871 10871 10871 10870 10870 10869 10869 10867 10867 10868 10867 10867 10867 10867 10867 10866 10866 10867 10867 10867 10867 10868 10869 10870 10871 10872 10873 10874 10876 10877 10879 10880 10882 10884 10885 10885 10887 10889 10891 10894 10898 10901 10904 10907 10910 10913 10917 10921 10924 10928 10931 10934 10938 10942 10945 10948 10951 10953 10956 10958 10959 10962 10963 10964 10963 10963 10964 10967 10969 10971 10974 10975 10977 10978 10979
10875 10874 10874 10874 10873 10873 10873 10873 10873 10872 10871 10871 10869 10869 10869 10868 10868 10867 10867 10867 10865 10864 10865 10865 10864 10865 10865 10865 10864 10864 10864 10864 10864 10865 10865 10865 10866 10867 10868 10869 10871 10872 10874 10875 10876 10878 10880 10880 10880 10883 10885 10887 10890 10894 10897 10900 10902 10905 10909 10912 10916 10919 10922 10926 10929 10933 10937 10940 10944 10946 10949 10952 10954 10955 10957 10959 10960 10962 10962 10963 10964 10966 10969 10971 10973 10975 10976 10978
10871 10871 10871 10871 10870 10870 10869 10869 10869 10869 10868 10868 10867 10866 10866 10865 10865 10865 10864 10865 10863 10862 10863 10863 10862 10862 10863 10862 10862 10861 10862 10862 10862 10863 10862 10863 10863 10864 10865 10866 10867 10868 10869 10871 10873 10874 10875 10875 10877 10879 10881 10884 10887 10889 10892 10894 10896 10901 10906 10908 10911 10914 10917 10921 10924 10927 10931 10935 10939 10942 10946 10948 10950 10951 10953 10955 10957 10959 10961 10962 10963 10965 10967 10969 10971 10973 10974 10976
10868 10867 10867 10869 10868 10867 10867 10865 10865 10866 10865 10865 10864 10864 10863 10863 10863 10862 10862 10862 10861 10860 10860 10860 10860 10860 10860 10860 10859 10859 10860 10860 10860 10860 10860 10860 10860 10861 10862 10862 10863 10864 10866 10868 10869 10869 10871 10873 10874 10877 10879 10881 10883 10885 10887 10889 10892 10897 10901 10904 10906 10910 10913 10916 10919 10922 10925 10929 10934 10938 10941 10944 10946 10947 10949 10952 10954 10956 10959 10961 10962 10965 10966 10967 10968 10971 10972 10974
10865 10863 10864 10866 10865 10864 10864 10863 10862 10863 10863 10862 10862 10861 10861 10861 10861 10860 10860 10859 10859 10859 10857 10857 10858 10858 10858 10858 10857 10857 10858 10858 10858 10857 10857 10857 10858 10858 10858 10858 10859 10861 10862 10864 10866 10865 10867 10869 10871 10872 10875 10877 10878 10881 10882 10884 10888 10893 10896 10899 10901 10904 10907 10910 10913 10917 10920 10924 10928 10932 10936 10939 10942 10944 10945 10948 10951 10954 10957 10960 10961 10963 10965 10965 10967 10969 10970 10971
10862 10861 10861 10863 10863 10862 10861 10860 10859 10860 10860 10860 10859 10859 10859 10859 10858 10858 10857 10857 10857 10857 10855 10855 10856 10856 10856 10856 10855 10855 10856 10856 10856 10855 10855 10855 10855 10855 10855 10855 10856 10857 10859 10860 10861 10861 10863 10865 10867 10868 10871 10873 10874 10876 10878 10880 10884 10887 10890 10893 10896 10898 10902 10905 10908 10913 10916 10919 10922 10926 10929 10933 10937 10940 10942 10945 10948 10951 10955 10957 10958 10960 10963 10964 10965 10966 10968 10969
10859 10858 10858 10860 10860 10859 10859 10858 10857 10857 10857 10857 10857 10857 10856 10856 10856 10855 10855 10856 10855 10854 10853 10854 10854 10854 10854 10854 10853 10853 10853 10853 10853 10853 10853 10852 10852 10852 10852 10852 10853 10854 10855 10856 10857 10858 10859 10861 10863 10864 10866 10868 10869 10871 10873 10876 10879 10882 10885 10888 10890 10893 10897 10901 10905 10909 10912 10914 10917 10920 10923 10927 10932 10935 10939 10942 10945 10948 10951 10953 10955 10957 10959 10961 10963 10964 10965 10967
10857 10856 10856 10857 10857 10857 10856 10855 10855 10855 10855 10854 10854 10854 10854 10853 10852 10852 10854 10854 10853 10852 10851 10851 10851 10851 10851 10851 10851 10851 10851 10851 10851 10851 10851 10850 10850 10850 10850 10850 10850 10851 10851 10852 10854 10854 10855 10857 10858 10860 10861 10863 10865 10867 10869 10872 10875 10877 10879 10882 10885 10888 10892 10896 10900 10903 10906 10908 10910 10913 10917 10921 10926 10931 10935 10938 10940 10943 10946 10949 10951 10953 10956 10958 10960 10962 10963 10964
10853 10853 10853 10853 10854 10854 10853 10852 10852 10852 10852 10852 10851 10851 10851 10850 10849 10849 10851 10852 10851 10849 10848 10848 10849 10848 10848 10849 10848 10848 10848 10849 10848 10849 10849 10848 10848 10848 10848 10848 10848 10848 10848 10849 10850 10851 10851 10853 10854 10856 10857 10859 10861 10863 10865 10868 10870 10872 10874 10877 10880 10882 10886 10890 10893 10896 10899 10901 10903 10906 10910 10915 10920 10926 10930 10933 10936 10939 10943 10945 10947 10950 10952 10954 10957 10959 10961 10962
10850 10850 10850 10850 10850 10851 10850 10849 10849 10849 10849 10848 10848 10848 10847 10846 10846 10847 10848 10848 10848 10847 10844 10845 10845 10845 10845 10846 10846 10845 10845 10846 10846 10846 10846 10846 10845 10845 10845 10846 10846 10845 10846 10846 10846 10846 10848 10850 10850 10852 10854 10855 10857 10859 10861 10863 10865 10868 10870 10873 10875 10877 10880 10883 10886 10889 10892 10895 10898 10901 10904 10909 10915 10920 10925 10928 10931 10935 10939 10942 10944 10946 10949 10952 10955 10957 10959 10960
10846 10846 10846 10846 10847 10847 10847 10845 10845 10845 10845 10845 10845 10844 10843 10843 10843 10844 10844 10844 10844 10844 10841 10841 10842 10842 10842 10842 10842 10842 10842 10843 10843 10843 10844 10843 10843 10843 10842 10843 10843 10843 10843 10843 10843 10842 10844 10847 10847 10848 10850 10851 10853 10855 10857 10858 10861 10864 10866 10869 10871 10872 10874 10877 10880 10883 10887 10890 10893 10896 10899 10903 10909 10914 10918 10922 10925 10929 10933 10937 10940 10942 10945 10949 10952 10955 10956 10957
10842 10842 10842 10843 10843 10843 10843 10842 10841 10841 10841 10841 10841 10840 10839 10840 10839 10840 10841 10840 10840 10840 10838 10838 10838 10839 10839 10839 10839 10839 10839 10840 10840 10840 10840 10841 10840 10840 10840 10840 10840 10841 10841 10841 10840 10839 10840 10843 10843 10844 10846 10847 10848 10851 10852 10854 10857 10859 10861 10864 10866 10867 10868 10871 10875 10878 10882 10885 10887 10890 10894 10898 10903 10908 10913 10917 10921 10925 10930 10933 10937 10940 10942 10945 10948 10951 10953 10954
10838 10838 10838 10838 10838 10839 10838 10838 10837 10837 10837 10837 10837 10836 10835 10836 10836 10836 10838 10836 10835 10836 10835 10834 10834 10835 10836 10835 10835 10835 10835 10836 10836 10836 10837 10838 10838 10838 10838 10838 10837 10838 10838 10838 10837 10838 10837 10838 10840 10840 10842 10843 10844 10846 10848 10850 10852 10854 10857 10859 10861 10863 10864 10867 10870 10873 10876 10879 10881 10884 10887 10893 10899 10904 10909 10914 10917 10921 10927 10930 10933 10937 10940 10942 10945 10948 10950 10951
10833 10833 10834 10834 10834 10834 10834 10833 10833 10833 10833 10833 10832 10831 10832 10832 10832 10832 10834 10832 10830 10832 10833 10830 10830 10831 10832 10831 10831 10832 10832 10832 10832 10833 10834 10834 10835 10835 10835 10835 10835 10835 10836 10835 10835 10836 10835 10835 10836 10837 10838 10839 10840 10842 10844 10846 10848 10850 10852 10854 10857 10859 10861 10863 10865 10867 10871 10873 10876 10879 10881 10887 10895 10900 10904 10909 10912 10916 10922 10926 10929 10932 10936 10938 10941 10943 10946 10947
10829 10828 10829 10829 10829 10830 10829 10828 10829 10829 10828 10828 10827 10827 10827 10827 10827 10827 10829 10827 10825 10827 10829 10825 10826 10829 10829 10827 10827 10827 10828 10829 10828 10829 10831 10831 10832 10831 10832 10832 10832 10832 10833 10832 10833 10833 10833 10832 10832 10833 10835 10835 10836 10838 10841 10842 10844 10846 10847 10849 10852 10854 10856 10858 10859 10862 10865 10867 10870 10873 10876 10882 10891 10895 10897 10902 10907 10911 10917 10922 10924 10928 10932 10936 10937 10938 10940 10942
10824 10824 10824 10824 10824 10824 10824 10823 10823 10823 10823 10822 10822 10821 10821 10822 10822 10821 10822 10822 10820 10822 10824 10821 10821 10824 10826 10824 10822 10821 10824 10827 10825 10825 10827 10828 10828 10828 10829 10829 10829 10830 10830 10829 10830 10830 10830 10830 10829 10829 10831 10832 10834 10835 10837 10838 10838 10840 10842 10844 10847 10849 10851 10852 10854 10857 10859 10861 10864 10868 10871 10878 10885 10889 10892 10897 10902 10907 10913 10917 10921 10926 10932 10936 10936 10934 10934 10936
10819 10818 10818 10818 10818 10819 10819 10818 10818 10817 10817 10816 10816 10816 10815 10815 10815 10816 10816 10816 10816 10817 10818 10816 10816 10818 10821 10821 10818 10816 10819 10822 10823 10822 10823 10824 10824 10824 10825 10826 10826 10827 10826 10826 10828 10827 10827 10827 10827 10826 10827 10829 10830 10832 10833 10834 10834 10835 10838 10839 10841 10843 10845 10847 10849 10852 10854 10856 10860 10863 10866 10872 10878 10882 10888 10893 10898 10903 10908 10914 10920 10928 10934 10935 10931 10928 10929 10932
10813 10813 10812 10812 10813 10813 10813 10813 10812 10812 10811 10811 10810 10810 10810 10809 10808 10810 10811 10810 10810 10811 10813 10812 10811 10812 10815 10816 10814 10813 10815 10816 10818 10820 10819 10819 10820 10820 10822 10823 10823 10824 10824 10823 10824 10824 10824 10825 10824 10823 10824 10825 10827 10828 10830 10831 10831 10831 10833 10835 10838 10839 10840 10842 10845 10847 10849 10851 10854 10857 10861 10866 10871 10877 10884 10889 10893 10899 10904 10910 10919 10925 10928 10926 10922 10921 10924 10928
10808 10807 10806 10806 10807 10807 10807 10807 10807 10807 10806 10806 10805 10805 10805 10804 10803 10804 10805 10805 10805 10806 10807 10807 10806 10806 10808 10810 10809 10809 10811 10812 10813 10816 10815 10814 10816 10816 10817 10820 10820 10820 10821 10820 10820 10821 10821 10821 10821 10821 10821 10822 10824 10824 10826 10827 10827 10827 10829 10831 10834 10834 10835 10838 10840 10843 10844 10845 10849 10852 10856 10861 10865 10872 10879 10884 10888 10893 10899 10904 10909 10912 10912 10911 10912 10915 10918 10922
10802 10802 10801 10800 10801 10801 10802 10802 10801 10802 10801 10800 10800 10800 10800 10799 10798 10799 10799 10800 10800 10800 10802 10802 10801 10801 10802 10804 10804 10803 10806 10808 10808 10810 10810 10810 10812 10812 10812 10817 10817 10815 10817 10817 10817 10818 10818 10817 10818 10819 10819 10819 10820 10820 10821 10823 10823 10824 10825 10827 10828 10829 10831 10833 10836 10838 10839 10841 10845 10847 10851 10856 10861 10867 10873 10878 10882 10887 10892 10896 10899 10901 10900 10900 10903 10908 10912 10916
10795 10796 10795 10795 10795 10795 10796 10796 10796 10797 10796 10796 10795 10795 10795 10794 10794 10794 10794 10795 10794 10794 10796 10796 10796 10796 10796 10798 10799 10798 10800 10803 10803 10805 10805 10805 10807 10807 10808 10812 10813 10811 10813 10813 10813 10813 10814 10814 10815 10816 10815 10815 10816 10817 10817 10818 10819 10820 10821 10822 10823 10825 10827 10829 10830 10832 10834 10837 10840 10842 10846 10853 10857 10861 10867 10871 10876 10881 10885 10889 10892 10894 10894 10896 10898 10902 10906 10910
10788 10789 10789 10789 10789 10789 10789 10790 10790 10791 10791 10791 10791 10790 10790 10790 10790 10790 10790 10790 10790 10790 10790 10791 10790 10790 10790 10792 10793 10792 10794 10797 10798 10798 10799 10800 10803 10803 10803 10807 10808 10807 10809 10809 10808 10809 10810 10810 10811 10812 10812 10812 10813 10814 10814 10814 10815 10817 10817 10818 10819 10820 10823 10824 10825 10827 10829 10832 10834 10837 10842 10848 10851 10854 10860 10864 10869 10874 10878 10881 10885 10887 10889 10893 10894 10896 10900 10905
10781 10782 10782 10782 10782 10782 10783 10784 10784 10784 10786 10787 10786 10786 10785 10785 10785 10786 10785 10785 10786 10786 10785 10785 10785 10785 10784 10785 10786 10786 10788 10790 10792 10792 10793 10796 10798 10796 10797 10802 10804 10804 10804 10803 10803 10805 10806 10806 10806 10807 10809 10809 10809 10810 10811 10811 10812 10813 10813 10814 10815 10816 10818 10819 10820 10823 10825 10826 10829 10834 10838 10841 10844 10848 10852 10857 10863 10868 10871 10874 10877 10880 10884 10887 10888 10890 10894 10899
10774 10775 10775 10776 10776 10775 10776 10778 10778 10777 10779 10781 10780 10780 10780 10780 10780 10781 10781 10780 10780 10781 10780 10779 10780 10780 10779 10779 10779 10780 10781 10783 10786 10786 10787 10791 10792 10789 10791 10797 10799 10800 10799 10798 10799 10801 10801 10801 10801 10803 10805 10805 10805 10806 10807 10808 10808 10809 10809 10810 10812 10812 10813 10814 10816 10819 10820 10821 10826 10830 10832 10835 10839 10843 10846 10852 10857 10861 10865 10868 10871 10875 10878 10880 10881 10884 10887 10891
10767 10768 10768 10768 10770 10769 10769 10771 10771 10771 10773 10774 10774 10774 10775 10774 10774 10775 10776 10775 10775 10776 10775 10774 10775 10775 10773 10773 10773 10773 10774 10776 10778 10779 10780 10784 10786 10783 10785 10791 10794 10794 10794 10793 10795 10797 10796 10796 10797 10799 10800 10800 10801 10802 10803 10804 10805 10805 10805 10806 10808 10808 10809 10810 10812 10814 10815 10817 10821 10825 10826 10830 10835 10839 10842 10847 10852 10856 10859 10863 10866 10869 10871 10873 10875 10878 10881 10885
10759 10760 10760 10760 10762 10763 10763 10764 10765 10766 10766 10767 10768 10768 10769 10769 10769 10769 10771 10771 10769 10770 10770 10769 10769 10769 10768 10768 10767 10767 10767 10769 10770 10771 10773 10777 10778 10778 10781 10784 10787 10788 10788 10788 10790 10792 10791 10791 10792 10795 10797 10796 10797 10798 10798 10799 10800 10801 10801 10802 10803 10804 10805 10806 10808 10809 10811 10814 10816 10818 10820 10825 10830 10834 10838 10841 10845 10849 10853 10856 10860 10862 10864 10868 10870 10873 10876 10879
10750 10752 10753 10753 10754 10755 10755 10756 10758 10759 10759 10760 10761 10762 10762 10762 10763 10763 10765 10765 10764 10764 10765 10765 10764 10764 10763 10762 10761 10761 10761 10762 10763 10764 10767 10771 10773 10774 10777 10778 10779 10782 10783 10783 10785 10787 10786 10786 10788 10791 10792 10792 10793 10794 10794 10795 10796 10797 10798 10798 10800 10801 10802 10803 10804 10806 10808 10810 10812 10813 10817 10822 10826 10827 10831 10834 10838 10842 10846 10850 10854 10857 10860 10863 10866 10868 10871 10874
10742 10744 10745 10746 10747 10747 10748 10749 10751 10752 10752 10753 10755 10756 10755 10756 10757 10757 10758 10759 10759 10758 10758 10760 10759 10757 10757 10756 10755 10756 10756 10756 10757 10759 10763 10766 10766 10767 10770 10771 10772 10775 10777 10779 10781 10781 10781 10782 10784 10786 10786 10786 10788 10790 10789 10790 10792 10793 10794 10795 10797 10797 10798 10799 10800 10802 10805 10806 10807 10810 10815 10819 10819 10820 10824 10828 10831 10835 10840 10843 10848 10852 10855 10858 10860 10863 10865 10869